| time (UTC) | temp F | wind direction | speed MPH | gust MPH | rain 1hr in | rain 24hr in | rain mn in | humidity % | barometer mb |
| 20260504120110 | 51 | 291 | 2.0 | 2.0 | 0.00 | 0.00 | 0.00 | 54 | 1013.0 |
| 20260504110538 | 44 | 342 | 0.0 | 0.0 | 0.00 | 0.00 | 0.00 | 71 | 1013.1 |
| 20260504100454 | 42 | 346 | 0.0 | 0.0 | 0.00 | 0.00 | 0.00 | 72 | 1012.8 |
| 20260504081847 | 39 | 346 | 0.0 | 0.0 | 0.00 | 0.00 | 0.00 | 75 | 1012.8 |
| 20260504081343 | 40 | 346 | 0.0 | 0.0 | 0.00 | 0.00 | 0.00 | 75 | 1013.2 |
| 20260504080839 | 40 | 346 | 0.0 | 0.0 | 0.00 | 0.00 | 0.00 | 74 | 1013.1 |
| 20260504080337 | 40 | 346 | 0.0 | 0.0 | 0.00 | 0.00 | 0.00 | 74 | 1013.0 |
| 20260504070304 | 41 | 346 | 0.0 | 0.0 | 0.00 | 0.00 | 0.00 | 73 | 1012.8 |
| 20260504060224 | 41 | 340 | 0.0 | 0.0 | 0.00 | 0.00 | 0.00 | 73 | 1012.8 |
| 20260504050652 | 42 | 340 | 0.0 | 0.0 | 0.00 | 0.00 | 0.00 | 68 | 1012.6 |
| 20260504050149 | 42 | 340 | 0.0 | 0.0 | 0.00 | 0.00 | 0.00 | 68 | 1012.6 |
| 20260504045646 | 43 | 340 | 0.0 | 0.0 | 0.00 | 0.00 | 0.00 | 67 | 1012.8 |
| 20260504045146 | 43 | 340 | 0.0 | 0.0 | 0.00 | 0.00 | 0.00 | 67 | 1012.8 |
| 20260504044644 | 43 | 340 | 0.0 | 0.0 | 0.00 | 0.00 | 0.00 | 65 | 1012.7 |
| 20260504044141 | 43 | 340 | 0.0 | 0.0 | 0.00 | 0.00 | 0.00 | 66 | 1012.9 |
| 20260504043638 | 44 | 340 | 0.0 | 0.0 | 0.00 | 0.00 | 0.00 | 65 | 1012.7 |
| 20260504043135 | 43 | 346 | 0.0 | 0.0 | 0.00 | 0.00 | 0.00 | 65 | 1012.5 |
| 20260504042632 | 43 | 346 | 0.0 | 0.0 | 0.00 | 0.00 | 0.00 | 65 | 1012.7 |
| 20260504042129 | 43 | 346 | 0.0 | 0.0 | 0.00 | 0.00 | 0.00 | 66 | 1012.8 |
| 20260504041625 | 43 | 346 | 0.0 | 0.0 | 0.00 | 0.00 | 0.00 | 66 | 1012.8 |
| 20260504041121 | 43 | 346 | 0.0 | 0.0 | 0.00 | 0.00 | 0.00 | 65 | 1012.4 |
| 20260504040619 | 42 | 346 | 0.0 | 0.0 | 0.00 | 0.00 | 0.00 | 67 | 1012.5 |
| 20260504040115 | 42 | 346 | 0.0 | 1.0 | 0.00 | 0.00 | 0.00 | 67 | 1012.5 |
| 20260504035612 | 42 | 346 | 0.0 | 0.0 | 0.00 | 0.00 | 0.00 | 68 | 1012.3 |
| 20260504035108 | 42 | 346 | 0.0 | 0.0 | 0.00 | 0.00 | 0.00 | 67 | 1012.3 |
| 20260504034607 | 42 | 346 | 0.0 | 0.0 | 0.00 | 0.00 | 0.00 | 67 | 1012.3 |
| 20260504034103 | 42 | 346 | 0.0 | 0.0 | 0.00 | 0.00 | 0.00 | 66 | 1012.3 |
| 20260504033601 | 42 | 346 | 0.0 | 0.0 | 0.00 | 0.00 | 0.00 | 66 | 1012.4 |
| 20260504033058 | 42 | 346 | 0.0 | 0.0 | 0.00 | 0.00 | 0.00 | 67 | 1012.4 |
| 20260504032555 | 42 | 346 | 0.0 | 0.0 | 0.00 | 0.00 | 0.00 | 66 | 1012.5 |
| 20260504032052 | 42 | 346 | 0.0 | 0.0 | 0.00 | 0.00 | 0.00 | 68 | 1012.4 |
| 20260504031549 | 42 | 346 | 0.0 | 0.0 | 0.00 | 0.00 | 0.00 | 67 | 1012.4 |
| 20260504031045 | 43 | 346 | 0.0 | 0.0 | 0.00 | 0.00 | 0.00 | 67 | 1012.4 |
| 20260504030542 | 43 | 346 | 0.0 | 0.0 | 0.00 | 0.00 | 0.00 | 67 | 1012.5 |
| 20260504030038 | 43 | 346 | 0.0 | 0.0 | 0.00 | 0.00 | 0.00 | 67 | 1012.4 |
| 20260504025536 | 43 | 346 | 0.0 | 0.0 | 0.00 | 0.00 | 0.00 | 69 | 1012.6 |
| 20260504025032 | 43 | 346 | 0.0 | 0.0 | 0.00 | 0.00 | 0.00 | 69 | 1012.3 |
| 20260504024529 | 43 | 346 | 0.0 | 0.0 | 0.00 | 0.00 | 0.00 | 67 | 1012.5 |
| 20260504024026 | 44 | 346 | 0.0 | 0.0 | 0.00 | 0.00 | 0.00 | 67 | 1012.4 |
| 20260504023523 | 44 | 346 | 0.0 | 0.0 | 0.00 | 0.00 | 0.00 | 66 | 1012.7 |
| 20260504023019 | 44 | 346 | 0.0 | 0.0 | 0.00 | 0.00 | 0.00 | 64 | 1012.5 |
| 20260504022514 | 44 | 346 | 0.0 | 0.0 | 0.00 | 0.00 | 0.00 | 65 | 1012.6 |
| 20260504022011 | 44 | 346 | 0.0 | 0.0 | 0.00 | 0.00 | 0.00 | 63 | 1012.5 |
| 20260504021509 | 44 | 346 | 0.0 | 0.0 | 0.00 | 0.00 | 0.00 | 63 | 1012.4 |
| 20260504021006 | 44 | 346 | 0.0 | 0.0 | 0.00 | 0.00 | 0.00 | 64 | 1012.6 |
| 20260504020503 | 44 | 347 | 0.0 | 0.0 | 0.00 | 0.00 | 0.00 | 64 | 1012.5 |
| 20260504015959 | 44 | 346 | 0.0 | 0.0 | 0.00 | 0.00 | 0.00 | 64 | 1012.5 |
| 20260504015455 | 44 | 342 | 0.0 | 1.0 | 0.00 | 0.00 | 0.00 | 66 | 1012.6 |
| 20260504014951 | 44 | 341 | 0.0 | 0.0 | 0.00 | 0.00 | 0.00 | 67 | 1012.7 |
| 20260504014447 | 44 | 342 | 0.0 | 0.0 | 0.00 | 0.00 | 0.00 | 67 | 1012.4 |
| 20260504013944 | 44 | 342 | 0.0 | 0.0 | 0.00 | 0.00 | 0.00 | 67 | 1012.3 |
| 20260504013443 | 44 | 342 | 0.0 | 0.0 | 0.00 | 0.00 | 0.00 | 67 | 1012.1 |
| 20260504012938 | 44 | 343 | 0.0 | 0.0 | 0.00 | 0.00 | 0.00 | 63 | 1012.3 |
| 20260504012437 | 45 | 343 | 0.0 | 0.0 | 0.00 | 0.00 | 0.00 | 65 | 1012.2 |
| 20260504011934 | 45 | 342 | 0.0 | 0.0 | 0.00 | 0.00 | 0.00 | 62 | 1012.4 |
| 20260504011431 | 46 | 343 | 0.0 | 0.0 | 0.00 | 0.00 | 0.00 | 59 | 1012.1 |
| 20260504010927 | 46 | 343 | 0.0 | 0.0 | 0.00 | 0.00 | 0.00 | 59 | 1012.1 |
| 20260504010423 | 46 | 343 | 0.0 | 0.0 | 0.00 | 0.00 | 0.00 | 57 | 1012.2 |
| 20260504005919 | 47 | 343 | 0.0 | 0.0 | 0.00 | 0.00 | 0.00 | 58 | 1012.2 |
| 20260504005416 | 47 | 343 | 0.0 | 0.0 | 0.00 | 0.00 | 0.00 | 57 | 1012.2 |
| 20260504004913 | 47 | 343 | 0.0 | 0.0 | 0.00 | 0.00 | 0.00 | 56 | 1012.0 |
| 20260504004411 | 47 | 343 | 0.0 | 0.0 | 0.00 | 0.00 | 0.00 | 57 | 1012.1 |
| 20260504003908 | 47 | 346 | 0.0 | 0.0 | 0.00 | 0.00 | 0.00 | 56 | 1012.0 |
| 20260504003404 | 48 | 343 | 0.0 | 0.0 | 0.00 | 0.00 | 0.00 | 55 | 1011.9 |
| 20260504002901 | 48 | 343 | 0.0 | 0.0 | 0.00 | 0.00 | 0.00 | 55 | 1011.5 |
| 20260504002358 | 48 | 343 | 0.0 | 0.0 | 0.00 | 0.00 | 0.00 | 55 | 1011.6 |
| 20260504001855 | 48 | 343 | 0.0 | 0.0 | 0.00 | 0.00 | 0.00 | 54 | 1011.5 |
| 20260504001353 | 49 | 343 | 0.0 | 0.0 | 0.00 | 0.00 | 0.00 | 54 | 1011.5 |
| 20260504000849 | 49 | 343 | 0.0 | 0.0 | 0.00 | 0.00 | 0.00 | 54 | 1011.8 |
| 20260504000346 | 49 | 343 | 0.0 | 0.0 | 0.00 | 0.00 | 0.00 | 53 | 1011.6 |
| 20260503235844 | 50 | 343 | 0.0 | 0.0 | 0.00 | 0.00 | 0.00 | 53 | 1011.4 |
| 20260503235341 | 50 | 343 | 0.0 | 0.0 | 0.00 | 0.00 | 0.00 | 52 | 1011.4 |
| 20260503234838 | 50 | 343 | 0.0 | 0.0 | 0.00 | 0.00 | 0.00 | 52 | 1011.2 |
| 20260503234336 | 50 | 343 | 0.0 | 0.0 | 0.00 | 0.00 | 0.00 | 51 | 1011.1 |
| 20260503233834 | 51 | 343 | 0.0 | 0.0 | 0.00 | 0.00 | 0.00 | 51 | 1011.2 |
| 20260503233330 | 51 | 348 | 1.0 | 2.0 | 0.00 | 0.00 | 0.00 | 50 | 1011.2 |
| 20260503232826 | 51 | 309 | 0.0 | 0.0 | 0.00 | 0.00 | 0.00 | 49 | 1011.1 |
| 20260503232324 | 52 | 309 | 0.0 | 1.0 | 0.00 | 0.00 | 0.00 | 49 | 1011.3 |
| 20260503231821 | 52 | 299 | 0.0 | 1.0 | 0.00 | 0.00 | 0.00 | 49 | 1011.5 |
| 20260503231318 | 52 | 322 | 1.0 | 2.0 | 0.00 | 0.00 | 0.00 | 49 | 1011.1 |
| 20260503230814 | 52 | 326 | 1.0 | 1.0 | 0.00 | 0.00 | 0.00 | 48 | 1011.3 |
| 20260503230311 | 53 | 290 | 1.0 | 1.0 | 0.00 | 0.00 | 0.00 | 47 | 1011.2 |
| 20260503225809 | 53 | 306 | 3.0 | 3.0 | 0.00 | 0.00 | 0.00 | 46 | 1011.2 |
| 20260503225305 | 53 | 332 | 3.0 | 3.0 | 0.00 | 0.00 | 0.00 | 46 | 1011.0 |
| 20260503224801 | 53 | 324 | 2.0 | 2.0 | 0.00 | 0.00 | 0.00 | 47 | 1011.1 |
| 20260503224259 | 53 | 326 | 2.0 | 2.0 | 0.00 | 0.00 | 0.00 | 45 | 1011.1 |
| 20260503223756 | 53 | 325 | 1.0 | 1.0 | 0.00 | 0.00 | 0.00 | 45 | 1010.9 |
| 20260503223254 | 54 | 295 | 2.0 | 2.0 | 0.00 | 0.00 | 0.00 | 46 | 1011.1 |
| 20260503222749 | 54 | 340 | 1.0 | 2.0 | 0.00 | 0.00 | 0.00 | 45 | 1011.1 |
| 20260503222247 | 54 | 305 | 1.0 | 2.0 | 0.00 | 0.00 | 0.00 | 44 | 1011.3 |
| 20260503221746 | 54 | 349 | 1.0 | 1.0 | 0.00 | 0.00 | 0.00 | 44 | 1011.2 |
| 20260503221243 | 55 | 301 | 3.0 | 3.0 | 0.00 | 0.00 | 0.00 | 43 | 1011.0 |
| 20260503220740 | 55 | 351 | 0.0 | 0.0 | 0.00 | 0.00 | 0.00 | 42 | 1011.1 |
| 20260503220237 | 55 | 286 | 2.0 | 2.0 | 0.00 | 0.00 | 0.00 | 41 | 1011.1 |
| 20260503215733 | 55 | 317 | 3.0 | 5.0 | 0.00 | 0.00 | 0.00 | 41 | 1011.0 |
| 20260503215230 | 55 | 10 | 4.0 | 7.0 | 0.00 | 0.00 | 0.00 | 42 | 1010.9 |
| 20260503214729 | 55 | 11 | 5.0 | 7.0 | 0.00 | 0.00 | 0.00 | 41 | 1010.8 |
| 20260503214225 | 55 | 327 | 4.0 | 5.0 | 0.00 | 0.00 | 0.00 | 40 | 1010.9 |
| 20260503213723 | 54 | 296 | 1.0 | 2.0 | 0.00 | 0.00 | 0.00 | 42 | 1010.9 |
| 20260503213220 | 54 | 318 | 1.0 | 2.0 | 0.00 | 0.00 | 0.00 | 42 | 1010.8 |
| 20260503212717 | 53 | 275 | 2.0 | 2.0 | 0.00 | 0.00 | 0.00 | 41 | 1010.8 |
| 20260503212215 | 54 | 63 | 3.0 | 3.0 | 0.00 | 0.00 | 0.00 | 41 | 1010.6 |
| 20260503211712 | 55 | 319 | 3.0 | 3.0 | 0.00 | 0.00 | 0.00 | 39 | 1010.6 |
| 20260503211208 | 55 | 12 | 3.0 | 3.0 | 0.00 | 0.00 | 0.00 | 39 | 1010.6 |
| 20260503210704 | 55 | 274 | 1.0 | 2.0 | 0.00 | 0.00 | 0.00 | 38 | 1010.5 |
| 20260503210201 | 56 | 340 | 4.0 | 5.0 | 0.00 | 0.00 | 0.00 | 38 | 1010.4 |
| 20260503205656 | 55 | 276 | 3.0 | 3.0 | 0.00 | 0.00 | 0.00 | 38 | 1010.6 |
| 20260503205152 | 55 | 77 | 3.0 | 3.0 | 0.00 | 0.00 | 0.00 | 39 | 1010.6 |
| 20260503204649 | 55 | 357 | 3.0 | 3.0 | 0.00 | 0.00 | 0.00 | 39 | 1010.6 |
| 20260503204147 | 55 | 273 | 4.0 | 6.0 | 0.00 | 0.00 | 0.00 | 39 | 1010.5 |
| 20260503203644 | 55 | 267 | 2.0 | 3.0 | 0.00 | 0.00 | 0.00 | 39 | 1010.9 |
| 20260503203142 | 55 | 335 | 2.0 | 3.0 | 0.00 | 0.00 | 0.00 | 39 | 1010.8 |
| 20260503202639 | 55 | 0 | 2.0 | 3.0 | 0.00 | 0.00 | 0.00 | 40 | 1010.9 |
| 20260503202137 | 55 | 265 | 3.0 | 5.0 | 0.00 | 0.00 | 0.00 | 38 | 1011.0 |
| 20260503201634 | 54 | 355 | 3.0 | 3.0 | 0.00 | 0.00 | 0.00 | 40 | 1010.9 |
| 20260503201132 | 55 | 335 | 2.0 | 2.0 | 0.00 | 0.00 | 0.00 | 38 | 1010.8 |
| 20260503200627 | 55 | 274 | 2.0 | 3.0 | 0.00 | 0.00 | 0.00 | 38 | 1010.9 |
| 20260503200124 | 54 | 15 | 4.0 | 6.0 | 0.00 | 0.00 | 0.00 | 39 | 1010.9 |
| 20260503195621 | 54 | 356 | 3.0 | 3.0 | 0.00 | 0.00 | 0.00 | 40 | 1011.1 |
| 20260503195118 | 54 | 284 | 2.0 | 2.0 | 0.00 | 0.00 | 0.00 | 38 | 1011.1 |
| 20260503194615 | 54 | 307 | 5.0 | 6.0 | 0.00 | 0.00 | 0.00 | 39 | 1011.1 |
| 20260503194110 | 53 | 163 | 5.0 | 7.0 | 0.00 | 0.00 | 0.00 | 40 | 1011.2 |
| 20260503193607 | 55 | 284 | 3.0 | 3.0 | 0.00 | 0.00 | 0.00 | 39 | 1011.1 |
| 20260503193102 | 54 | 304 | 3.0 | 3.0 | 0.00 | 0.00 | 0.00 | 39 | 1011.3 |
| 20260503192559 | 53 | 335 | 0.0 | 1.0 | 0.00 | 0.00 | 0.00 | 42 | 1011.2 |
| 20260503192054 | 54 | 318 | 4.0 | 5.0 | 0.00 | 0.00 | 0.00 | 39 | 1011.2 |
| 20260503191551 | 53 | 306 | 2.0 | 2.0 | 0.00 | 0.00 | 0.00 | 41 | 1011.4 |
| 20260503191048 | 54 | 348 | 3.0 | 5.0 | 0.00 | 0.00 | 0.00 | 40 | 1011.4 |
| 20260503190545 | 55 | 299 | 3.0 | 3.0 | 0.00 | 0.00 | 0.00 | 40 | 1011.5 |
| 20260503190042 | 54 | 313 | 3.0 | 3.0 | 0.00 | 0.00 | 0.00 | 39 | 1011.5 |
| 20260503185539 | 53 | 319 | 4.0 | 5.0 | 0.00 | 0.00 | 0.00 | 38 | 1011.4 |
| 20260503185038 | 52 | 291 | 3.0 | 3.0 | 0.00 | 0.00 | 0.00 | 39 | 1011.9 |
| 20260503184535 | 52 | 286 | 3.0 | 5.0 | 0.00 | 0.00 | 0.00 | 41 | 1011.8 |
| 20260503184032 | 54 | 301 | 3.0 | 5.0 | 0.00 | 0.00 | 0.00 | 39 | 1011.6 |
| 20260503183528 | 53 | 346 | 4.0 | 5.0 | 0.00 | 0.00 | 0.00 | 39 | 1011.8 |
| 20260503183025 | 53 | 332 | 3.0 | 6.0 | 0.00 | 0.00 | 0.00 | 39 | 1011.6 |
| 20260503182524 | 53 | 321 | 3.0 | 3.0 | 0.00 | 0.00 | 0.00 | 41 | 1011.9 |
| 20260503182021 | 53 | 255 | 3.0 | 3.0 | 0.00 | 0.00 | 0.00 | 40 | 1011.6 |
| 20260503181518 | 53 | 328 | 2.0 | 3.0 | 0.00 | 0.00 | 0.00 | 40 | 1011.9 |
| 20260503181014 | 53 | 268 | 4.0 | 7.0 | 0.00 | 0.00 | 0.00 | 40 | 1011.5 |
| 20260503180512 | 53 | 354 | 1.0 | 2.0 | 0.00 | 0.00 | 0.00 | 39 | 1011.5 |
| 20260503180009 | 52 | 353 | 4.0 | 6.0 | 0.00 | 0.00 | 0.00 | 42 | 1011.9 |
| 20260503175506 | 51 | 315 | 1.0 | 1.0 | 0.00 | 0.00 | 0.00 | 45 | 1012.0 |
| 20260503175003 | 50 | 87 | 2.0 | 2.0 | 0.00 | 0.00 | 0.00 | 43 | 1011.6 |
| 20260503174500 | 49 | 346 | 3.0 | 3.0 | 0.00 | 0.00 | 0.00 | 45 | 1012.0 |
| 20260503173956 | 50 | 331 | 5.0 | 7.0 | 0.00 | 0.00 | 0.00 | 44 | 1012.0 |
| 20260503173452 | 50 | 13 | 6.0 | 9.0 | 0.00 | 0.00 | 0.00 | 44 | 1012.0 |
| 20260503172948 | 49 | 329 | 4.0 | 5.0 | 0.00 | 0.00 | 0.00 | 43 | 1012.2 |
| 20260503172446 | 50 | 290 | 3.0 | 5.0 | 0.00 | 0.00 | 0.00 | 43 | 1012.0 |
| 20260503171942 | 50 | 296 | 1.0 | 1.0 | 0.00 | 0.00 | 0.00 | 46 | 1012.2 |
| 20260503171439 | 51 | 225 | 4.0 | 5.0 | 0.00 | 0.00 | 0.00 | 43 | 1012.0 |
| 20260503170937 | 49 | 151 | 3.0 | 5.0 | 0.00 | 0.00 | 0.00 | 45 | 1012.1 |
| 20260503170433 | 50 | 227 | 4.0 | 5.0 | 0.00 | 0.00 | 0.00 | 43 | 1012.3 |
| 20260503150825 | 42 | 326 | 2.0 | 3.0 | 0.00 | 0.00 | 0.00 | 59 | 1013.0 |
| 20260503150321 | 43 | 48 | 1.0 | 2.0 | 0.00 | 0.00 | 0.00 | 61 | 1012.9 |
| 20260503140246 | 44 | 326 | 3.0 | 3.0 | 0.00 | 0.00 | 0.00 | 63 | 1012.8 |
| 20260503131215 | 43 | 264 | 2.0 | 2.0 | 0.00 | 0.00 | 0.00 | 67 | 1012.9 |
| 20260503130713 | 42 | 279 | 0.0 | 1.0 | 0.00 | 0.00 | 0.00 | 71 | 1012.9 |
| 20260503130210 | 42 | 358 | 3.0 | 5.0 | 0.00 | 0.00 | 0.00 | 69 | 1013.2 |